Preview of NWS' New Version of Forecast
This preview is not operational and should not be used for support decisions.

Regional Weather Roundup (RWR)

Issued by National Weather Service (NWS)

                            
000
ASUS43 KBIS 221110
RWRND 

NORTH DAKOTA REGIONAL WEATHER ROUNDUP
NATIONAL WEATHER SERVICE BISMARCK ND
600 AM CDT MON JUL 22 2019

NOTE: "FAIR" INDICATES FEW OR NO CLOUDS BELOW 12,000 FEET WITH NO
SIGNIFICANT WEATHER AND/OR OBSTRUCTIONS TO VISIBILITY.


NDZ001>003-009>011-017-221200-
NORTHWEST NORTH DAKOTA
  
CITY           SKY/WX    TMP DP  RH WIND       PRES   REMARKS
WILLISTON      CLEAR     50  48  93 NE3       30.30R                  
MINOT          CLEAR     60  56  86 SW8       30.29S                  
MINOT AFB      CLEAR     51  50  95 CALM      30.28R                  
$$
 
NDZ018>021-031>035-040>046-221200-
SOUTHWEST NORTH DAKOTA
  
CITY           SKY/WX    TMP DP  RH WIND       PRES   REMARKS
BISMARCK       CLEAR     54  53  97 CALM      30.32R                  
DICKINSON      CLEAR     50  47  89 CALM      30.31R                  
GARRISON         N/A     50  49  96 N3        30.30S                  
HETTINGER ARPT CLEAR     49  47  93 CALM      30.33R                  
$$
 
NDZ004>008-012>016-024-026-027-054-221200-
NORTHEAST NORTH DAKOTA
  
CITY           SKY/WX    TMP DP  RH WIND       PRES   REMARKS
GRAND FORKS    CLEAR     49  45  86 CALM      30.27R                  
GRND FRKS AFB  CLEAR     48  47  99 W3        30.28R                  
DEVILS LAKE    CLEAR     52  50  93 CALM      30.31R                  
$$
 
NDZ022-023-025-028>030-036>039-047>053-221200-
SOUTHEAST NORTH DAKOTA
  
CITY           SKY/WX    TMP DP  RH WIND       PRES   REMARKS
FARGO          CLEAR     53  51  93 CALM      30.28R                  
JAMESTOWN      FOG       56  55  97 CALM      30.30S VSB 3/4          
$$